Fort Morgan, CO

6:51 PM MST on January 22, 2017 (GMT -0700)
Fort Morgan

Weather History for KFMM - September, 2013

Change the Weather History Date:

Friday, September 27, 2013

  Actual Average (KAKO) Record (KAKO)
Temperature  
Mean Temperature 48 °F -  
Max Temperature 54 °F 73 °F 91 °F (1953)
Min Temperature 41 °F 43 °F 26 °F (1945)
Degree Days  
Heating Degree Days 16    
Moisture  
Dew Point 43 °F    
Average Humidity 86    
Maximum Humidity 93    
Minimum Humidity 74    
Precipitation  
Precipitation 0.00 in - - ()
Sea Level Pressure  
Sea Level Pressure 29.85 in    
Wind  
Wind Speed 13 mph (NNE)    
Max Wind Speed 17 mph    
Max Gust Speed 23 mph    
Visibility 10 miles    
Events Rain    
Averages and records for this station are not official NWS values.
T = Trace of Precipitation, MM = Missing Value Source: NWS Daily Summary

Daily Weather History Graph

Daily Weather History Graph

Search for Another Location

Airport or City:

Trip Planner

Search our weather history database for the weather conditions in past years. The results will help you decide how hot, cold, wet, or windy it might be!

Date:

Astronomy

Sep. 27, 2013 Rise Set
Actual Time 6:47 AM MDT 6:43 PM MDT
Civil Twilight 6:20 AM MDT 7:10 PM MDT
Nautical Twilight 5:49 AM MDT 7:42 PM MDT
Astronomical Twilight 5:17 AM MDT 8:14 PM MDT
Moon No Moon Rise 2:24 PM MDT (9/27)
Length of Visible Light 12h 49m
Length of Day
11h 55m
Last Quarter, 44% of the Moon is Illuminated
Sep 27
Last Quarter
Oct 4
New
Oct 11
First Quarter
Oct 18
Full
Oct 26
Last Quarter

Hourly Weather History & Observations

Time (MDT) Temp. Windchill Dew Point Humidity Pressure Visibility Wind Dir Wind Speed Gust Speed Precip Events Conditions
12:15 AM 54.5 °F - 50.5 °F 86% 29.73 in 10.0 mi North 12.7 mph 19.6 mph N/A   Clear
12:35 AM 53.8 °F - 50.2 °F 88% 29.72 in 10.0 mi NNE 16.1 mph 20.7 mph N/A   Clear
12:55 AM 53.6 °F - 50.0 °F 88% 29.72 in 10.0 mi NNE 12.7 mph - N/A   Clear
1:15 AM 53.1 °F - 49.8 °F 89% 29.72 in 10.0 mi NNE 12.7 mph - N/A   Clear
1:35 AM 52.9 °F - 49.3 °F 88% 29.72 in 10.0 mi NNE 15.0 mph - N/A   Clear
1:55 AM 52.7 °F - 49.1 °F 88% 29.73 in 10.0 mi NE 17.3 mph 20.7 mph N/A   Clear
2:15 AM 52.5 °F - 48.6 °F 86% 29.73 in 10.0 mi NE 16.1 mph 23.0 mph N/A   Clear
2:35 AM 51.8 °F - 48.2 °F 88% 29.74 in 10.0 mi NNE 15.0 mph 21.9 mph N/A   Clear
2:55 AM 50.9 °F - 47.8 °F 89% 29.74 in 10.0 mi NNE 12.7 mph 17.3 mph N/A   Clear
3:15 AM 50.2 °F - 47.3 °F 90% 29.75 in 10.0 mi NNE 10.4 mph - N/A   Clear
3:35 AM 50.0 °F - 46.8 °F 89% 29.75 in 10.0 mi NNE 11.5 mph 17.3 mph N/A   Clear
3:55 AM 48.7 °F - 45.9 °F 90% 29.75 in 10.0 mi NNE 11.5 mph - N/A   Clear
4:15 AM 47.7 °F - 44.8 °F 90% 29.76 in 10.0 mi NE 9.2 mph - N/A   Clear
4:35 AM 47.1 °F - 44.6 °F 91% 29.76 in 10.0 mi NNE 11.5 mph 16.1 mph N/A   Scattered Clouds
4:55 AM 47.5 °F - 44.2 °F 89% 29.77 in 10.0 mi NE 10.4 mph - N/A   Overcast
5:15 AM 47.3 °F - 44.1 °F 88% 29.79 in 10.0 mi North 10.4 mph 16.1 mph N/A   Overcast
5:35 AM 47.3 °F - 43.9 °F 88% 29.79 in 10.0 mi North 12.7 mph - N/A   Overcast
5:55 AM 47.3 °F - 44.1 °F 88% 29.80 in 10.0 mi North 12.7 mph - N/A   Overcast
6:15 AM 47.5 °F - 44.1 °F 88% 29.80 in 10.0 mi NNE 13.8 mph 19.6 mph N/A   Overcast
6:35 AM 47.5 °F - 44.1 °F 88% 29.81 in 10.0 mi North 15.0 mph 18.4 mph N/A   Overcast
6:55 AM 47.3 °F - 43.9 °F 88% 29.82 in 10.0 mi NNE 12.7 mph - N/A   Overcast
7:15 AM 46.9 °F - 43.5 °F 88% 29.82 in 10.0 mi North 15.0 mph - N/A   Overcast
7:35 AM 46.4 °F 40.7 °F 43.0 °F 88% 29.82 in 10.0 mi NNE 12.7 mph - N/A   Overcast
7:55 AM 46.0 °F 40.6 °F 42.8 °F 88% 29.84 in 10.0 mi North 11.5 mph - N/A   Overcast
8:15 AM 46.0 °F 40.2 °F 42.4 °F 87% 29.84 in 10.0 mi NNE 12.7 mph 18.4 mph N/A   Overcast
8:35 AM 45.9 °F 39.7 °F 43.3 °F 91% 29.85 in 4.0 mi North 13.8 mph - N/A   Overcast
8:55 AM 45.9 °F 39.4 °F 43.7 °F 92% 29.85 in 7.0 mi North 15.0 mph - N/A   Overcast
9:15 AM 46.2 °F 40.5 °F 43.0 °F 88% 29.86 in 10.0 mi NNE 12.7 mph 17.3 mph N/A   Overcast
9:35 AM 46.8 °F - 43.7 °F 89% 29.86 in 10.0 mi NNE 10.4 mph - N/A   Overcast
9:55 AM 47.8 °F - 44.1 °F 87% 29.86 in 10.0 mi NNE 10.4 mph - N/A   Overcast
10:15 AM 48.6 °F - 43.9 °F 84% 29.85 in 10.0 mi NNE 11.5 mph - N/A   Overcast
10:35 AM 48.4 °F - 43.7 °F 84% 29.85 in 10.0 mi NNE 15.0 mph - N/A   Overcast
10:55 AM 48.7 °F - 43.5 °F 82% 29.84 in 10.0 mi NNE 11.5 mph - N/A   Overcast
11:15 AM 50.0 °F - 43.9 °F 79% 29.81 in 10.0 mi NNE 15.0 mph 19.6 mph N/A   Overcast
11:35 AM 49.5 °F - 43.3 °F 79% 29.84 in 10.0 mi North 13.8 mph - N/A   Overcast
11:55 AM 49.1 °F - 42.8 °F 79% 29.84 in 10.0 mi NNE 13.8 mph - N/A   Overcast
12:15 PM 49.5 °F - 42.6 °F 77% 29.84 in 10.0 mi NNE 13.8 mph - N/A   Overcast
12:35 PM 48.9 °F - 42.3 °F 78% 29.85 in 10.0 mi NNE 10.4 mph - N/A   Overcast
12:55 PM 50.0 °F - 42.6 °F 76% 29.85 in 10.0 mi NNE 11.5 mph - N/A   Overcast
1:15 PM 49.1 °F - 41.9 °F 76% 29.86 in 10.0 mi NNE 11.5 mph - N/A   Overcast
1:35 PM 48.9 °F - 42.1 °F 77% 29.85 in 10.0 mi North 15.0 mph - N/A   Overcast
1:55 PM 48.2 °F - 41.7 °F 78% 29.85 in 10.0 mi North 13.8 mph - N/A   Overcast
2:15 PM 48.2 °F - 41.7 °F 78% 29.85 in 10.0 mi NNE 13.8 mph - N/A   Overcast
2:35 PM 48.2 °F - 41.4 °F 77% 29.85 in 10.0 mi NNE 13.8 mph - N/A   Overcast
2:55 PM 48.2 °F - 41.2 °F 77% 29.85 in 10.0 mi NNE 16.1 mph 20.7 mph N/A   Overcast
3:15 PM 48.4 °F - 41.4 °F 77% 29.84 in 10.0 mi NE 17.3 mph - N/A   Overcast
3:35 PM 46.8 °F - 41.7 °F 83% 29.86 in 10.0 mi NNE 12.7 mph 17.3 mph N/A Rain Rain
3:55 PM 45.9 °F 39.4 °F 42.8 °F 89% 29.85 in 7.0 mi NNE 15.0 mph - N/A Rain Rain
4:15 PM 45.5 °F 40.3 °F 43.0 °F 91% 29.87 in 10.0 mi NNE 10.4 mph - N/A Rain Light Rain
4:35 PM 45.5 °F 41.8 °F 42.8 °F 90% 29.88 in 10.0 mi NNE 6.9 mph - N/A Rain Rain
4:55 PM 45.5 °F 40.8 °F 43.0 °F 91% 29.88 in 10.0 mi North 9.2 mph - N/A Rain Light Rain
5:15 PM 45.1 °F 38.8 °F 43.0 °F 92% 29.87 in 10.0 mi North 13.8 mph - N/A Rain Rain
5:35 PM 45.0 °F 39.7 °F 43.2 °F 93% 29.88 in 10.0 mi NNE 10.4 mph 17.3 mph N/A Rain Rain
5:55 PM 45.0 °F 39.3 °F 43.0 °F 93% 29.90 in 7.0 mi North 11.5 mph - N/A Rain Light Rain
6:15 PM 44.8 °F 39.0 °F 42.8 °F 93% 29.91 in 10.0 mi North 11.5 mph 16.1 mph N/A   Light Drizzle
6:35 PM 44.8 °F 37.7 °F 42.4 °F 91% 29.91 in 10.0 mi NNW 16.1 mph 21.9 mph N/A   Overcast
6:55 PM 45.0 °F 37.9 °F 41.9 °F 89% 29.91 in 10.0 mi NNW 16.1 mph 23.0 mph N/A   Overcast
7:15 PM 44.8 °F 39.4 °F 41.2 °F 87% 29.94 in 10.0 mi North 10.4 mph - N/A   Overcast
7:35 PM 44.6 °F 39.2 °F 41.2 °F 88% 29.95 in 10.0 mi North 10.4 mph 17.3 mph N/A Rain Light Rain
7:55 PM 44.6 °F 39.7 °F 41.5 °F 89% 29.95 in 10.0 mi North 9.2 mph - N/A Rain Light Rain
8:15 PM 44.6 °F 39.7 °F 41.7 °F 90% 29.95 in 10.0 mi NNW 9.2 mph - N/A   Overcast
8:35 PM 44.8 °F 39.9 °F 41.2 °F 87% 29.97 in 10.0 mi NW 9.2 mph - N/A   Drizzle
8:55 PM 45.0 °F 41.2 °F 41.2 °F 87% 29.97 in 10.0 mi NNW 6.9 mph - N/A   Light Drizzle
9:15 PM 45.7 °F 42.0 °F 39.9 °F 80% 29.98 in 10.0 mi WNW 6.9 mph - N/A   Overcast
9:35 PM 46.8 °F - 38.8 °F 74% 30.00 in 10.0 mi West 10.4 mph 21.9 mph N/A Rain Rain
9:55 PM 46.2 °F 43.3 °F 39.2 °F 76% 29.98 in 10.0 mi NW 5.8 mph - N/A Rain Light Rain
10:15 PM 45.9 °F 41.7 °F 40.5 °F 81% 29.99 in 10.0 mi NNW 8.1 mph - N/A   Overcast
10:35 PM 45.1 °F 40.3 °F 41.2 °F 86% 30.00 in 10.0 mi NNE 9.2 mph - N/A   Overcast
10:55 PM 45.0 °F 38.9 °F 40.3 °F 84% 30.00 in 10.0 mi North 12.7 mph 16.1 mph N/A   Overcast
11:15 PM 44.2 °F 38.8 °F 40.3 °F 86% 30.00 in 10.0 mi North 10.4 mph - N/A   Mostly Cloudy
11:35 PM 43.2 °F 37.9 °F 39.6 °F 87% 30.00 in 10.0 mi North 9.2 mph - N/A   Scattered Clouds
11:55 PM 41.9 °F 36.9 °F 39.2 °F 90% 30.01 in 10.0 mi North 8.1 mph - N/A   Clear